Regional Weather Roundup
Issued by NWS

Home | Current Version | Previous Version | Graphics & Text | Print | Product List | Glossary On
Versions: 1 2 3 4 5 6 7 8 9 10 11 12 13 14 15 16 17 18 19 20 21 22 23 24 25 26 27 28 29 30 31 32 33 34 35 36 37 38 39 40 41 42 43 44 45 46 47 48 49 50
264
ASUS43 KDMX 240201
RWRIA

WEATHER ROUNDUP FOR IOWA
NATIONAL WEATHER SERVICE DES MOINES IA
900 PM CDT MON OCT 23 2017

NOTE: "FAIR" INDICATES FEW OR NO CLOUDS BELOW 12,000 FEET WITH NO
SIGNIFICANT WEATHER AND/OR OBSTRUCTIONS TO VISIBILITY.

* - THESE STATIONS ARE NOT NWS STATIONS...THUS NOT UNDER NWS
QUALITY CONTROL.  THEY ALSO DO NOT REPORT WEATHER SUCH
AS PRECIPITATION OR FOG.

IAZ001>003-012>014-020>022-031>034-043>046-240300-
   NORTHWEST IOWA

CITY           SKY/WX    TMP DP  RH WIND       PRES   REMARKS
CARROLL *      CLOUDY    48  32  53 W13       29.97F
CHEROKEE *     PTCLDY    49  32  52 NW12G23   30.00S
DENISON *      PTCLDY    50  32  50 NW15G21   30.02F
LE MARS *      CLOUDY    50  34  53 NW8G15    30.03S
ORANGE CITY *  MOCLDY    52  36  54 NW15G22   30.01F
SHELDON *      MOCLDY    48  34  57 NW13G21   29.98S
SIOUX CITY     CLOUDY    52  33  48 NW17G26   30.03F
SPENCER        CLEAR     47  32  56 NW16      29.96F
STORM LAKE *   CLEAR     46  30  53 NW10G17   29.98S
$$

IAZ055>058-069>071-079>083-090>094-240300-
   SOUTHWEST IOWA

CITY           SKY/WX    TMP DP  RH WIND       PRES   REMARKS
ATLANTIC *     PTCLDY    50  32  50 W12       30.01F
AUDUBON *      CLEAR     46  34  61 W6        30.00S
CLARINDA *     CLEAR     48  34  57 NW8       30.07S
COUNCIL BLFS * MOCLDY    50  30  46 NW13      30.05F
CRESTON *      CLOUDY    48  36  61 NW12      30.00F
HARLAN  *      MOCLDY    48  32  53 NW13      30.05F
LAMONI         CLOUDY    51  35  54 NW20G25   29.98R
RED OAK *      MOCLDY    48  32  53 W6        30.05F
SHENANDOAH *   CLOUDY    48  34  57 VRB5      30.07F
$$

IAZ047>049-059>061-072>074-084-240300-
   CENTRAL IOWA

CITY           SKY/WX    TMP DP  RH WIND       PRES   REMARKS
AMES           CLOUDY    50  35  56 W12       29.91F
ANKENY *       CLOUDY    50  36  57 NW14      29.93F
BOONE *        CLOUDY    48  34  57 W12G20    29.91F
CHARITON *     CLOUDY    50  34  53 NW18G25   29.93F
DES MOINES     CLOUDY    50  33  52 NW12G18   29.93F
GRINNELL*      CLOUDY    48  36  63 NW16G26   29.88F
KNOXVILLE *    CLOUDY    50  34  53 NW16G24   29.90F
MARSHALLTOWN   LGT RAIN  49  36  61 NW20G25   29.86F
NEWTON *       CLOUDY    50  36  57 NW17      29.89F
PELLA *        CLOUDY    50  36  57 NW13      29.91F
PERRY *        CLOUDY    51  32  49 W12G21    29.94F
$$

IAZ004>006-015-016-023>025-035-036-240300-
   NORTH CENTRAL IOWA

CITY           SKY/WX    TMP DP  RH WIND       PRES   REMARKS
ALGONA *       CLOUDY    50  32  50 NW15G22   29.92S
CLARION *      CLOUDY    48  36  61 NW16      29.89F
ESTHERVILLE    PTCLDY    45  32  60 NW12G21   29.93F
FORT DODGE *   CLOUDY    49  33  54 W10       29.92F
MASON CITY     CLOUDY    49  33  54 NW22G31   29.87S
FOREST CITY *  CLOUDY    48  34  57 NW10G17   29.88S
WEBSTER CITY * CLOUDY    48  34  57 W13       29.89S
IOWA FALLS *   CLOUDY    49  37  62 NW12G20   29.89S
$$

IAZ007>011-017>019-026>030-037>042-050>054-066-240300-
   NORTHEAST IOWA

CITY           SKY/WX    TMP DP  RH WIND       PRES   REMARKS
CEDAR RAPIDS   CLOUDY    49  42  77 NW17G26   29.80S
CHARLES CITY * CLOUDY    48  30  49 NW17G31   29.82F
CLINTON *      CLOUDY    50  42  74 NW17      29.74S
DECORAH *      CLOUDY    48  41  76 NW17G29   29.75F
DUBUQUE        CLOUDY    48  39  71 NW21G26   29.74S
MONTICELLO *   CLOUDY    50  41  71 NW16G24   29.76S
OELWEIN *      CLOUDY    48  37  66 NW18G32   29.79F
WATERLOO       CLOUDY    48  32  53 NW20G30   29.81F
$$

IAZ064-065-067-068-078-240300-
   EAST CENTRAL IOWA

CITY           SKY/WX    TMP DP  RH WIND       PRES   REMARKS
DAVENPORT      MOCLDY    50  40  68 NW16G23   29.78R
IOWA CITY      CLOUDY    52  41  66 NW18G30   29.83R
MUSCATINE *    MOCLDY    52  39  62 NW21G28   29.80S
QUAD CITIES    CLOUDY    54  39  57 NW21G31   29.75S
$$

IAZ062-063-075>077-085>089-095>099-240300-
   SOUTHEAST IOWA

CITY           SKY/WX    TMP DP  RH WIND       PRES   REMARKS
BURLINGTON     CLOUDY    54  39  57 NW16G28   29.81R
FAIRFIELD *    MOCLDY    52  39  62 NW18G28   29.85R
FORT MADISON * PTCLDY    54  39  58 NW20G26   29.84R
KEOKUK *       PTCLDY    54  37  54 NW13G24   29.84R
OSKALOOSA *    CLOUDY    49  37  62 NW23G32   29.88S
OTTUMWA        LGT RAIN  51  37  58 NW24G33   29.88R
WASHINGTON *   MOCLDY    52  41  66 NW16G28   29.84S
$$

ABBREVIATIONS USED IN REMARKS
   TC - TEMPERATURES IN CELSIUS
  WCI - WIND CHILL INDEX
   HX - HEAT INDEX
  VSB - VISIBILITY
$$





USA.gov is the U.S. government's official web portal to all federal, state and local government web resources and services.